This demonstration page uses our WeatherBlox Daily Observations layout. Learn more.

Left ArrowRight Arrow

41.86663, -103.66717

Hourly Observations for November 19, 2021

Temp ( °F °C ) Dew Point ( °F °C ) Humidity (%) Winds ( mph kmh ) Pressure ( in mb ) Visibility ( mi km ) Precip ( " mm )
12:53 am 00:53 Clear 33 0.6 14 -10 45 45 undefined N/A 29.98 1015 10 16 0.00 0.00
1:53 am 01:53 Clear 30 -1.1 14 -10 51 51 Calm 30.00 1016 10 16 0.00 0.00
2:53 am 02:53 Clear 27 -2.8 15 -9.4 61 61 Calm 30.00 1016 10 16 0.00 0.00
3:53 am 03:53 Clear 29 -1.7 16 -8.9 58 58 Calm 30.00 1016 10 16 0.00 0.00
4:53 am 04:53 Clear 29 -1.7 17 -8.3 61 61 E 5 7 30.04 1017 10 16 0.00 0.00
5:53 am 05:53 Mostly Cloudy 29 -1.7 17 -8.3 61 61 Calm 30.05 1018 10 16 0.00 0.00
6:53 am 06:53 Partly Cloudy 29 -1.7 17 -8.3 61 61 SSW 3 6 30.05 1018 10 16 0.00 0.00
7:53 am 07:53 Partly Cloudy 33 0.6 19 -7.2 56 56 ENE 3 6 30.06 1018 10 16 0.00 0.00
8:53 am 08:53 Sunny 37 2.8 20 -6.7 50 50 Calm 30.03 1017 10 16 0.00 0.00
9:53 am 09:53 Sunny 46 7.8 20 -6.7 35 35 VRB 5 7 29.99 1016 10 16 0.00 0.00
10:53 am 10:53 Mostly Sunny 54 12.2 24 -4.4 31 31 W 5 7 29.95 1014 10 16 0.00 0.00
11:53 am 11:53 Mostly Sunny 60 15.6 25 -3.9 26 26 SW 7 11 29.90 1013 10 16 0.00 0.00
12:53 pm 12:53 Sunny 62 16.7 22 -5.6 21 21 W 9 15 29.87 1011 10 16 0.00 0.00
1:53 pm 13:53 Sunny 64 17.8 22 -5.6 20 20 W 9 15 29.85 1011 10 16 0.00 0.00
2:53 pm 14:53 Cloudy 62 16.7 22 -5.6 21 21 SW 5 7 29.86 1011 10 16 0.00 0.00
3:53 pm 15:53 Sunny 61 16.1 22 -5.6 22 22 WNW 14 22 29.87 1011 10 16 0.00 0.00
4:53 pm 16:53 Clear 57 13.9 22 -5.6 26 26 W 13 20 29.90 1013 10 16 0.00 0.00
5:53 pm 17:53 Clear 45 7.2 23 -5 42 42 NNE 8 13 29.95 1014 10 16 0.00 0.00
6:53 pm 18:53 Clear 44 6.7 23 -5 43 43 NNW 3 6 29.97 1015 10 16 0.00 0.00
7:53 pm 19:53 Cloudy 49 9.4 24 -4.4 38 38 W 14 22 29.99 1016 10 16 0.00 0.00
8:53 pm 20:53 Cloudy 58 14.4 26 -3.3 29 29 NW 17 28 29.92 1013 10 16 0.00 0.00
9:53 pm 21:53 Mostly Cloudy 50 10 28 -2.2 43 43 W 6 9 29.92 1013 10 16 0.00 0.00
10:53 pm 22:53 Mostly Cloudy 50 10 29 -1.7 44 44 WNW 7 11 29.91 1013 10 16 0.00 0.00
11:53 pm 23:53 Clear 46 7.8 26 -3.3 46 46 NNW 10 17 29.91 1013 10 16 0.00 0.00

Powered by AerisWeather